Location: La Comballaz
(46.3780°N, 7.0817°E)
Time: 04:42:03
(UTC+00:00)

Envisat - Pass Details

Date: 07 December 2021
Orbit: 764 x 766 km, 98.2° (Epoch: 16 January)

Event Time Altitude Azimuth Distance (km) Brightness Sun altitude
Rises 05:19:07 0° 7° (N) 3,244 6.2 -16.8°
Reaches altitude 10° 05:21:31 10° 1° (N) 2,313 5.3 -16.4°
Maximum altitude 05:26:17 42° 292° (WNW) 1,083 3.3 -15.6°
Drops below altitude 10° 05:31:02 10° 222° (SW) 2,297 5.2 -14.9°
Sets 05:33:25 0° 216° (SW) 3,219 6.0 -14.5°
